Location: La Silve
(44.2414°N, 5.8889°E)
Time: 09:54:13
(UTC+00:00)

SAR-Lupe-1 - Pass Details

Date: 01 December 2020
Orbit: 481 x 485 km, 98.2° (Epoch: 22 January)

Event Time Altitude Azimuth Distance (km) Brightness Sun altitude
Exits shadow 17:42:11 46° 56° (NE) 658 4.3 -18.0°
Maximum altitude 17:42:54 56° 101° (E) 578 4.0 -18.1°
Drops below altitude 10° 17:46:23 10° 181° (S) 1,653 6.9 -18.7°
Sets 17:48:28 0° 185° (S) 2,527 7.9 -19.1°
